カタログに戻る

BREEZE-M R/B

運用中MEO
NORAD 32479·ROCKET BODY·🇷🇺 Russia

打ち上げ Jan 28, 2008 から Baikonur Cosmodrome

Loading…

次のパス (今後24時間)

TLE

最新Source: Space-Track

元期: Sep 14, 2026, 01:55 UTC

1 32479U 08003B   26257.08025010 -.00000138  00000-0  00000-0 0  9997
2 32479  11.4401  26.2968 0197611 241.9363 132.6860  1.04003041 70538

AllMySatでBREEZE-M R/Bをリアルタイム追跡

Download on the App Store